Time,TemperatureF,DewpointF,PressureIn,WindDirection,WindDirectionDegrees,WindSpeedMPH,WindSpeedGustMPH,Humidity,HourlyPrecipIn,Conditions,Clouds,dailyrainin,SoftwareType,DateUTC
2013-07-04 01:22:00,73.0,56.0,29.63,SSE,150,0.0,-999.0,55,0.00,,,0.00,,2013-07-04 06:22:00,
2013-07-04 01:34:00,73.0,56.0,29.63,SSE,150,0.0,-999.0,56,0.00,,,0.00,,2013-07-04 06:34:00,
2013-07-04 01:43:00,73.0,56.0,29.63,SSE,150,0.0,-999.0,56,0.00,,,0.00,,2013-07-04 06:43:00,
2013-07-04 01:52:00,73.0,58.0,29.62,SSE,150,0.0,-999.0,59,0.00,,,0.00,,2013-07-04 06:52:00,
2013-07-04 02:02:00,73.0,61.0,29.62,SSE,150,0.0,-999.0,65,0.00,,,0.00,,2013-07-04 07:02:00,
2013-07-04 02:12:00,74.0,61.0,29.62,SSE,150,0.0,-999.0,65,0.00,,,0.00,,2013-07-04 07:12:00,
2013-07-04 02:22:00,75.0,62.0,29.62,SSE,154,0.0,-999.0,64,0.00,,,0.00,,2013-07-04 07:22:00,
2013-07-04 02:34:00,75.0,62.0,29.63,SE,145,0.0,-999.0,63,0.00,,,0.00,,2013-07-04 07:34:00,
2013-07-04 02:52:00,75.0,62.0,29.63,SSW,207,0.0,-999.0,65,0.00,,,0.00,,2013-07-04 07:52:00,
2013-07-04 03:02:00,75.0,62.0,29.63,SSW,207,0.0,-999.0,65,0.00,,,0.00,,2013-07-04 08:02:00,
2013-07-04 03:11:00,75.0,62.0,29.63,SW,219,0.0,-999.0,65,0.00,,,0.00,,2013-07-04 08:11:00,
2013-07-04 03:22:00,74.0,62.0,29.62,SW,219,0.0,-999.0,66,0.00,,,0.00,,2013-07-04 08:22:00,
2013-07-04 03:33:00,74.0,62.0,29.62,SSW,205,0.0,-999.0,66,0.00,,,0.00,,2013-07-04 08:33:00,
2013-07-04 03:42:00,74.0,62.0,29.62,SSW,199,0.0,-999.0,67,0.00,,,0.00,,2013-07-04 08:42:00,
2013-07-04 03:52:00,74.0,63.0,29.63,SE,142,1.0,-999.0,68,0.00,,,0.00,,2013-07-04 08:52:00,
2013-07-04 04:02:00,73.0,62.0,29.62,South,177,1.0,-999.0,69,0.00,,,0.00,,2013-07-04 09:02:00,
2013-07-04 04:11:00,73.0,63.0,29.62,South,177,0.0,-999.0,70,0.00,,,0.00,,2013-07-04 09:11:00,
2013-07-04 04:22:00,73.0,63.0,29.62,South,177,0.0,-999.0,71,0.00,,,0.00,,2013-07-04 09:22:00,
2013-07-04 04:32:00,73.0,63.0,29.62,South,177,0.0,-999.0,71,0.00,,,0.00,,2013-07-04 09:32:00,
2013-07-04 04:42:00,73.0,63.0,29.62,South,177,0.0,-999.0,72,0.00,,,0.00,,2013-07-04 09:42:00,
2013-07-04 04:52:00,72.0,63.0,29.62,SE,137,0.0,-999.0,73,0.00,,,0.00,,2013-07-04 09:52:00,
2013-07-04 05:01:00,72.0,63.0,29.62,SSE,166,0.0,-999.0,74,0.00,,,0.00,,2013-07-04 10:01:00,
2013-07-04 05:11:00,72.0,63.0,29.62,SSE,165,0.0,-999.0,74,0.00,,,0.00,,2013-07-04 10:11:00,
2013-07-04 05:22:00,72.0,63.0,29.62,SSE,165,0.0,-999.0,74,0.00,,,0.00,,2013-07-04 10:22:00,
2013-07-04 05:33:00,72.0,64.0,29.62,SSE,165,1.0,-999.0,76,0.00,,,0.00,,2013-07-04 10:33:00,
2013-07-04 05:42:00,72.0,64.0,29.62,SSE,165,0.0,-999.0,77,0.00,,,0.00,,2013-07-04 10:42:00,
2013-07-04 05:53:00,72.0,64.0,29.62,SSE,165,0.0,-999.0,76,0.00,,,0.00,,2013-07-04 10:53:00,
2013-07-04 06:02:00,71.0,64.0,29.62,SSE,165,0.0,-999.0,78,0.00,,,0.00,,2013-07-04 11:02:00,
2013-07-04 06:11:00,71.0,64.0,29.62,SSE,165,0.0,-999.0,79,0.00,,,0.00,,2013-07-04 11:11:00,
2013-07-04 06:22:00,71.0,64.0,29.62,SSE,165,0.0,-999.0,78,0.00,,,0.00,,2013-07-04 11:22:00,
2013-07-04 06:33:00,70.0,63.0,29.62,SSE,165,0.0,-999.0,79,0.00,,,0.00,,2013-07-04 11:33:00,
2013-07-04 06:43:00,69.0,63.0,29.62,SSE,165,0.0,-999.0,81,0.00,,,0.00,,2013-07-04 11:43:00,
2013-07-04 06:53:00,69.0,63.0,29.62,SSE,165,0.0,-999.0,81,0.00,,,0.00,,2013-07-04 11:53:00,
2013-07-04 07:02:00,69.0,63.0,29.62,SSE,165,0.0,-999.0,82,0.00,,,0.00,,2013-07-04 12:02:00,
2013-07-04 07:11:00,69.0,63.0,29.62,SSE,165,0.0,-999.0,82,0.00,,,0.00,,2013-07-04 12:11:00,
2013-07-04 07:22:00,69.0,63.0,29.62,SSE,165,0.0,-999.0,82,0.00,,,0.00,,2013-07-04 12:22:00,
2013-07-04 07:33:00,69.0,63.0,29.62,SSE,165,0.0,-999.0,82,0.00,,,0.00,,2013-07-04 12:33:00,
2013-07-04 07:43:00,69.0,64.0,29.64,SSE,165,0.0,-999.0,84,0.00,,,0.00,,2013-07-04 12:43:00,
2013-07-04 07:52:00,70.0,65.0,29.63,SSE,165,0.0,-999.0,84,0.00,,,0.00,,2013-07-04 12:52:00,
2013-07-04 08:02:00,70.0,65.0,29.63,SSE,165,0.0,-999.0,84,0.00,,,0.00,,2013-07-04 13:02:00,
2013-07-04 08:12:00,70.0,65.0,29.63,SSE,165,0.0,-999.0,84,0.00,,,0.00,,2013-07-04 13:12:00,
2013-07-04 08:23:00,73.0,67.0,29.63,South,169,1.0,-999.0,82,0.00,,,0.00,,2013-07-04 13:23:00,
2013-07-04 08:33:00,73.0,67.0,29.63,South,169,1.0,-999.0,82,0.00,,,0.00,,2013-07-04 13:33:00,
2013-07-04 08:43:00,74.0,67.0,29.64,South,180,1.0,-999.0,79,0.00,,,0.00,,2013-07-04 13:43:00,
2013-07-04 08:53:00,74.0,67.0,29.64,South,180,1.0,-999.0,79,0.00,,,0.00,,2013-07-04 13:53:00,
2013-07-04 09:02:00,77.0,67.0,29.65,South,179,1.0,-999.0,71,0.00,,,0.00,,2013-07-04 14:02:00,
2013-07-04 09:11:00,77.0,67.0,29.65,South,179,1.0,-999.0,71,0.00,,,0.00,,2013-07-04 14:11:00,
2013-07-04 09:22:00,78.0,67.0,29.65,East,80,0.0,-999.0,68,0.00,,,0.00,,2013-07-04 14:22:00,
2013-07-04 09:33:00,78.0,66.0,29.65,South,182,0.0,-999.0,67,0.00,,,0.00,,2013-07-04 14:33:00,
2013-07-04 09:43:00,78.0,66.0,29.65,SE,142,0.0,-999.0,66,0.00,,,0.00,,2013-07-04 14:43:00,
2013-07-04 09:53:00,78.0,66.0,29.65,SE,146,1.0,-999.0,67,0.00,,,0.00,,2013-07-04 14:53:00,
2013-07-04 10:02:00,78.0,66.0,29.65,ENE,67,0.0,-999.0,67,0.00,,,0.00,,2013-07-04 15:02:00,
2013-07-04 10:11:00,78.0,66.0,29.65,South,183,0.0,-999.0,66,0.00,,,0.00,,2013-07-04 15:11:00,
2013-07-04 10:23:00,79.0,65.0,29.65,SE,139,0.0,-999.0,62,0.00,,,0.00,,2013-07-04 15:23:00,
2013-07-04 10:33:00,79.0,64.0,29.65,SE,127,0.0,-999.0,61,0.00,,,0.00,,2013-07-04 15:33:00,
2013-07-04 10:43:00,80.0,65.0,29.65,SSE,150,1.0,-999.0,60,0.00,,,0.00,,2013-07-04 15:43:00,
2013-07-04 10:52:00,80.0,64.0,29.65,SSW,212,0.0,-999.0,58,0.00,,,0.00,,2013-07-04 15:52:00,
2013-07-04 11:02:00,81.0,63.0,29.65,SSW,198,1.0,-999.0,55,0.00,,,0.00,,2013-07-04 16:02:00,
2013-07-04 11:11:00,83.0,64.0,29.65,SW,216,2.0,-999.0,52,0.00,,,0.00,,2013-07-04 16:11:00,
2013-07-04 11:22:00,83.0,63.0,29.65,East,80,2.0,-999.0,51,0.00,,,0.00,,2013-07-04 16:22:00,
2013-07-04 11:33:00,84.0,62.0,29.65,WSW,239,0.0,-999.0,47,0.00,,,0.00,,2013-07-04 16:33:00,
2013-07-04 11:42:00,84.0,61.0,29.65,SSW,192,0.0,-999.0,46,0.00,,,0.00,,2013-07-04 16:42:00,
2013-07-04 11:52:00,85.0,60.0,29.65,SW,222,4.0,-999.0,43,0.00,,,0.00,,2013-07-04 16:52:00,
2013-07-04 12:01:00,86.0,60.0,29.65,SSW,192,0.0,-999.0,42,0.00,,,0.00,,2013-07-04 17:01:00,
2013-07-04 12:11:00,87.0,58.0,29.65,South,180,1.0,-999.0,38,0.00,,,0.00,,2013-07-04 17:11:00,
2013-07-04 12:22:00,87.0,57.0,29.64,WNW,288,0.0,-999.0,36,0.00,,,0.00,,2013-07-04 17:22:00,
2013-07-04 12:33:00,87.0,57.0,29.64,WNW,288,0.0,-999.0,36,0.00,,,0.00,,2013-07-04 17:33:00,
2013-07-04 12:43:00,87.0,59.0,29.64,ESE,115,0.0,-999.0,39,0.00,,,0.00,,2013-07-04 17:43:00,
2013-07-04 12:53:00,88.0,58.0,29.64,South,171,0.0,-999.0,36,0.00,,,0.00,,2013-07-04 17:53:00,
2013-07-04 13:01:00,88.0,58.0,29.64,East,84,0.0,-999.0,36,0.00,,,0.00,,2013-07-04 18:01:00,
2013-07-04 13:11:00,88.0,58.0,29.63,South,173,0.0,-999.0,36,0.00,,,0.00,,2013-07-04 18:11:00,
2013-07-04 13:22:00,88.0,58.0,29.63,ESE,103,0.0,-999.0,36,0.00,,,0.00,,2013-07-04 18:22:00,
2013-07-04 13:33:00,89.0,57.0,29.63,NW,312,0.0,-999.0,34,0.00,,,0.00,,2013-07-04 18:33:00,
2013-07-04 13:43:00,89.0,58.0,29.62,ENE,74,3.0,-999.0,35,0.00,,,0.00,,2013-07-04 18:43:00,
2013-07-04 13:52:00,90.0,58.0,29.62,South,169,2.0,-999.0,34,0.00,,,0.00,,2013-07-04 18:52:00,
2013-07-04 14:01:00,90.0,58.0,29.61,ENE,75,0.0,-999.0,34,0.00,,,0.00,,2013-07-04 19:01:00,
2013-07-04 14:11:00,90.0,58.0,29.61,SW,217,1.0,-999.0,34,0.00,,,0.00,,2013-07-04 19:11:00,
2013-07-04 14:22:00,90.0,58.0,29.61,South,180,2.0,-999.0,34,0.00,,,0.00,,2013-07-04 19:22:00,
2013-07-04 14:33:00,90.0,57.0,29.61,SE,134,3.0,-999.0,33,0.00,,,0.00,,2013-07-04 19:33:00,
2013-07-04 14:43:00,90.0,57.0,29.61,SSE,161,1.0,-999.0,33,0.00,,,0.00,,2013-07-04 19:43:00,
2013-07-04 14:53:00,90.0,57.0,29.60,South,184,0.0,-999.0,33,0.00,,,0.00,,2013-07-04 19:53:00,
2013-07-04 15:01:00,91.0,58.0,29.60,East,94,1.0,-999.0,33,0.00,,,0.00,,2013-07-04 20:01:00,
2013-07-04 15:11:00,91.0,57.0,29.59,SW,225,1.0,-999.0,32,0.00,,,0.00,,2013-07-04 20:11:00,
2013-07-04 15:22:00,90.0,56.0,29.59,SW,225,0.0,-999.0,32,0.00,,,0.00,,2013-07-04 20:22:00,
2013-07-04 15:33:00,91.0,56.0,29.59,South,178,2.0,-999.0,31,0.00,,,0.00,,2013-07-04 20:33:00,
2013-07-04 15:42:00,91.0,56.0,29.59,SSE,156,2.0,-999.0,31,0.00,,,0.00,,2013-07-04 20:42:00,
2013-07-04 15:53:00,91.0,56.0,29.59,SSE,156,2.0,-999.0,31,0.00,,,0.00,,2013-07-04 20:53:00,
2013-07-04 16:01:00,91.0,58.0,29.58,ENE,72,2.0,-999.0,33,0.00,,,0.00,,2013-07-04 21:01:00,
2013-07-04 16:11:00,91.0,57.0,29.58,ENE,74,0.0,-999.0,32,0.00,,,0.00,,2013-07-04 21:11:00,
2013-07-04 16:22:00,91.0,58.0,29.58,ENE,76,1.0,-999.0,33,0.00,,,0.00,,2013-07-04 21:22:00,
2013-07-04 16:32:00,91.0,58.0,29.58,ENE,76,1.0,-999.0,33,0.00,,,0.00,,2013-07-04 21:32:00,
2013-07-04 16:43:00,91.0,57.0,29.57,SE,146,1.0,-999.0,32,0.00,,,0.00,,2013-07-04 21:43:00,
2013-07-04 16:52:00,92.0,58.0,29.57,SE,144,0.0,-999.0,32,0.00,,,0.00,,2013-07-04 21:52:00,
2013-07-04 17:01:00,92.0,58.0,29.57,SE,144,0.0,-999.0,32,0.00,,,0.00,,2013-07-04 22:01:00,
2013-07-04 17:11:00,92.0,58.0,29.57,ESE,117,1.0,-999.0,32,0.00,,,0.00,,2013-07-04 22:11:00,
2013-07-04 17:22:00,93.0,59.0,29.57,SW,221,1.0,-999.0,32,0.00,,,0.00,,2013-07-04 22:22:00,
2013-07-04 17:32:00,92.0,57.0,29.55,South,180,0.0,-999.0,31,0.00,,,0.00,,2013-07-04 22:32:00,
2013-07-04 17:33:00,93.0,58.0,29.56,SSE,150,1.0,-999.0,31,0.00,,,0.00,,2013-07-04 22:33:00,
2013-07-04 17:43:00,92.0,56.0,29.56,East,98,3.0,-999.0,30,0.00,,,0.00,,2013-07-04 22:43:00,
2013-07-04 17:52:00,92.0,57.0,29.55,South,180,0.0,-999.0,31,0.00,,,0.00,,2013-07-04 22:52:00,
2013-07-04 18:01:00,92.0,57.0,29.55,South,180,0.0,-999.0,31,0.00,,,0.00,,2013-07-04 23:01:00,
2013-07-04 18:11:00,92.0,57.0,29.55,South,180,0.0,-999.0,31,0.00,,,0.00,,2013-07-04 23:11:00,
2013-07-04 18:23:00,92.0,57.0,29.55,South,180,0.0,-999.0,31,0.00,,,0.00,,2013-07-04 23:23:00,